Weather History for KLVK - September, 2013

Change the Weather History Date:

Thursday, September 12, 2013

  Actual Average Record
Temperature  
Mean Temperature 74 °F 71 °F  
Max Temperature 85 °F 85 °F 105 °F (1983)
Min Temperature 62 °F 56 °F 37 °F (1970)
Degree Days  
Heating Degree Days 0 0  
Month to date heating degree days 0 0  
Since 1 July heating degree days 0 7  
Cooling Degree Days 9 6  
Month to date cooling degree days 122 79  
Year to date cooling degree days 946 704  
Growing Degree Days 23 (Base 50)    
Moisture  
Dew Point 58 °F    
Average Humidity 62    
Maximum Humidity 84    
Minimum Humidity 40    
Precipitation  
Precipitation 0.00 in 0.00 in 0.05 in (2009)
Month to date precipitation 0.01 0.04  
Year to date precipitation 2.13 9.95  
Since 1 July precipitation 0.01 0.05  
Sea Level Pressure  
Sea Level Pressure 29.93 in    
Wind  
Wind Speed 7 mph (West)    
Max Wind Speed 20 mph    
Max Gust Speed 23 mph    
Visibility 10 miles    
Events      
T = Trace of Precipitation, MM = Missing Value Source: NWS Daily Summary

Daily Weather History Graph

Daily Weather History Graph

Search for Another Location

Airport or City:

Trip Planner

Search our weather history database for the weather conditions in past years. The results will help you decide how hot, cold, wet, or windy it might be!

Date:

Astronomy

Sep. 12, 2013 Rise Set
Actual Time 6:46 AM PDT 7:19 PM PDT
Civil Twilight 6:20 AM PDT 7:45 PM PDT
Nautical Twilight 5:49 AM PDT 8:16 PM PDT
Astronomical Twilight 5:17 AM PDT 8:48 PM PDT
Moon 2:12 PM PDT (9/12) No Moon Set
Length of Visible Light 13h 24m
Length of Day
12h 32m
Waxing Crescent, 51% of the Moon is Illuminated
Sep 12
Waxing Crescent
Sep 19
Full
Sep 26
Last Quarter
Oct 4
New
Oct 11
First Quarter

Hourly Weather History & Observations

Time (PDT) Temp. Heat Index Dew Point Humidity Pressure Visibility Wind Dir Wind Speed Gust Speed Precip Events Conditions
12:53 AM 64.9 °F - 57.9 °F 78% 29.95 in 10.0 mi SW 3.5 mph - N/A   Overcast
1:18 AM 66.2 °F - 57.2 °F 73% 29.96 in 10.0 mi SW 4.6 mph - N/A   Overcast
1:53 AM 64.9 °F - 57.9 °F 78% 29.95 in 10.0 mi WSW 3.5 mph - N/A   Overcast
2:53 AM 64.9 °F - 57.9 °F 78% 29.95 in 10.0 mi West 8.1 mph - N/A   Overcast
3:53 AM 64.0 °F - 57.9 °F 80% 29.94 in 10.0 mi West 8.1 mph - N/A   Overcast
4:53 AM 64.9 °F - 57.9 °F 78% 29.94 in 10.0 mi West 5.8 mph - N/A   Overcast
5:53 AM 64.0 °F - 57.9 °F 80% 29.95 in 10.0 mi WSW 5.8 mph - N/A   Overcast
6:53 AM 64.0 °F - 57.9 °F 80% 29.95 in 10.0 mi West 3.5 mph - N/A   Overcast
7:53 AM 64.0 °F - 57.9 °F 80% 29.97 in 10.0 mi WSW 3.5 mph - N/A   Overcast
8:53 AM 64.9 °F - 57.9 °F 78% 29.97 in 10.0 mi Calm Calm - N/A   Overcast
9:53 AM 66.9 °F - 59.0 °F 76% 29.97 in 10.0 mi West 5.8 mph - N/A   Overcast
10:53 AM 68.0 °F - 57.9 °F 70% 29.97 in 10.0 mi Calm Calm - N/A   Overcast
11:06 AM 69.8 °F - 59.0 °F 68% 29.98 in 10.0 mi Variable 4.6 mph - N/A   Overcast
11:38 AM 71.6 °F - 57.2 °F 60% 29.96 in 10.0 mi Variable 4.6 mph - N/A   Partly Cloudy
11:53 AM 73.0 °F - 57.9 °F 59% 29.95 in 10.0 mi Calm Calm - N/A   Clear
12:53 PM 77.0 °F - 57.9 °F 52% 29.93 in 10.0 mi NW 5.8 mph - N/A   Clear
1:53 PM 81.0 °F 81.1 °F 57.9 °F 45% 29.90 in 10.0 mi WSW 6.9 mph - N/A   Clear
2:53 PM 82.9 °F 82.8 °F 59.0 °F 44% 29.88 in 10.0 mi WNW 8.1 mph - N/A   Clear
3:53 PM 84.0 °F 83.5 °F 57.9 °F 41% 29.87 in 10.0 mi West 10.4 mph - N/A   Clear
4:53 PM 82.0 °F 81.7 °F 57.0 °F 42% 29.86 in 10.0 mi WNW 13.8 mph - N/A   Clear
5:53 PM 75.9 °F - 57.9 °F 54% 29.86 in 10.0 mi WNW 17.3 mph - N/A   Clear
6:53 PM 69.1 °F - 57.9 °F 68% 29.87 in 10.0 mi WNW 15.0 mph - N/A   Clear
7:53 PM 64.9 °F - 57.9 °F 78% 29.89 in 10.0 mi WNW 10.4 mph - N/A   Clear
8:53 PM 63.0 °F - 57.9 °F 84% 29.91 in 10.0 mi WNW 10.4 mph - N/A   Clear
9:53 PM 63.0 °F - 57.0 °F 81% 29.92 in 10.0 mi NW 5.8 mph - N/A   Clear
10:51 PM 62.6 °F - 57.2 °F 82% 29.93 in 10.0 mi West 5.8 mph - N/A   Mostly Cloudy
10:53 PM 62.1 °F - 57.9 °F 86% 29.92 in 10.0 mi West 5.8 mph - N/A   Mostly Cloudy
11:53 PM 63.0 °F - 57.9 °F 84% 29.91 in 10.0 mi WSW 3.5 mph - N/A   Overcast